Arsene-OSCAR-24

operational
NORAD ID: 22654 Int'l Des: 1993-031 Owner: RACE Country: F
MEOELLIPTICALHEO_ELLIPTICAL

关于 Arsene-OSCAR-24

正在加载描述...

实时位置

正在加载3D地球...

即将过境

高度历史

Altitude vs Time

uPlot chart will show altitude changes over time

两行轨道根数

1 22654U 93031B 26063.06630727 -.00000145 00000-0 00000+0 0 9993
2 22654 5.1068 50.1121 2850368 329.7149 36.9515 1.42202884165932
Epoch: Mar 4, 2026 • Age: 15 hours

当前状态

高度 22413.6 km
速度 3.97 km/s
星下点 -4.87°S, 77.47°W
发射日期 May 12, 1993
运行时间 32.8 years
类型 other

技术详情

分类 Payload
质量 87.00 kg
干质量 87.00 kg
总质量 154.00 kg
长度 1.10 m
直径 1.00 m
跨度 1.10 m
形状 Hex Cyl
制造商 AESPC
平台类型 Arsene
阶段状态 In Orbit
所有者/国家 RACE/F

大型星座

Loading constellations...